This is the latest recevied weather packets stored in our database for station/object SR2CPA-13. If no packets are shown the sender has not sent any weather packets the latest 10 day(s).
| Time | Temp. | Humidity | Pressure | Rain* | Wind** | Luminosity | Snow |
|---|---|---|---|---|---|---|---|
| 1778233004 | 13.33° C | 67% | 0 hPa | 0 mm | - | - | - |
| 1778232404 | 12.78° C | 75% | 0 hPa | 0 mm | - | - | - |
| 1778231784 | 12.22° C | 79% | 0 hPa | 0 mm | - | - | - |
| 1778231184 | 12.22° C | 84% | 0 hPa | 0 mm | - | - | - |
| 1778230564 | 11.67° C | 87% | 0 hPa | 0 mm | - | - | - |
| 1778229964 | 11.11° C | 89% | 0 hPa | 0 mm | - | - | - |
| 1778229364 | 11.11° C | 92% | 0 hPa | 0 mm | - | - | - |
| 1778228744 | 10.56° C | 99% | 0 hPa | 0 mm | - | - | - |
| 1778228144 | 10.56° C | 99% | 0 hPa | 0 mm | - | - | - |
| 1778227524 | 10° C | 99% | 0 hPa | 0 mm | - | - | - |
| 1778226924 | 10° C | 99% | 0 hPa | 0 mm | - | - | - |
| 1778226304 | 10° C | 99% | 0 hPa | 0 mm | - | - | - |
| 1778225704 | 10° C | 99% | 0 hPa | 0 mm | - | - | - |
| 1778225084 | 9.44° C | 99% | 0 hPa | 0 mm | - | - | - |
| 1778224484 | 9.44° C | 99% | 0 hPa | 0 mm | - | - | - |
| 1778223884 | 8.89° C | 99% | 0 hPa | 0 mm | - | - | - |
| 1778223264 | 8.89° C | 99% | 0 hPa | 0 mm | - | - | - |
| 1778222664 | 8.33° C | 99% | 0 hPa | 0 mm | - | - | - |
| 1778222044 | 8.33° C | 99% | 0 hPa | 0 mm | - | - | - |
| 1778221444 | 7.78° C | 99% | 0 hPa | 0 mm | - | - | - |
| 1778220824 | 7.78° C | 99% | 0 hPa | 0 mm | - | - | - |
| 1778220224 | 7.78° C | 99% | 0 hPa | 0 mm | - | - | - |
| 1778219624 | 7.78° C | 99% | 0 hPa | 0 mm | - | - | - |
| 1778219004 | 7.22° C | 99% | 0 hPa | 0 mm | - | - | - |
| 1778218403 | 7.22° C | 99% | 0 hPa | 0 mm | - | - | - |
* Rain latest hour (hover to see other rain measurements)
** Current wind speed in m/s (hover to see current wind gust speed)